Location: Ammerl�gen
(47.2167°N, 9.6000°E)
Time: 07:21:06
(UTC+00:00)

RS-15 - Pass Details

Date: 13 December 2021
Orbit: 1882 x 2162 km, 64.8° (Epoch: 17 January)

Event Time Altitude Azimuth Distance (km) Brightness Sun altitude
Exits shadow 01:48:11 49° 36° (NE) 2,555 8.6 -51.2°
Drops below altitude 10° 01:56:10 10° 38° (NE) 4,649 10.4 -50.0°
Sets 01:59:40 0° 39° (NE) 5,674 11.0 -49.5°
